Flag for Germany Weather past 2 weeks in Euskirchen, North Rhine-Westphalia, Germany

Now
66 °F

Fog.


Feels Like: 66 °F
Forecast: 52 / 69 °F
Wind: 1 mph from Northeast

Location: Noervenich

Current Time: Aug 31, 2015 at 7:44:39 AM

Latest Report: Aug 31, 2015 at 6:20 AM


Visibility: N/A

Pressure: 29.92 "Hg

Humidity: 94%

Dew point: 64 °F

Location of EuskirchenLocation

Historic Weather in Euskirchen — Graph

°F

Euskirchen temperature yesterday

Maximum temperature yesterday: 91 °F (at 3:20 PM)
Minimum temperature yesterday: 64 °F (at 2:20 AM)
Average temperature yesterday: 77 °F

Past Weeks' High & Low Weather Summary

 TemperatureHumidityPressure
High91 °F (Aug 30, 3:20 PM)100% (Aug 16, 9:20 AM)30.24 "Hg (Aug 16, 9:20 AM)
Low48 °F (Aug 19, 6:20 AM)30% (Aug 23, 3:20 PM)29.53 "Hg (Aug 24, 2:20 PM)
Average64 °F75%29.98 "Hg
* Reported Aug 16 6:20 AM — Aug 31 6:20 AM, Euskirchen, Weather by CustomWeather, © 2015

Note: Actual official high and low records may vary slightly from our data, if they occured in-between our weather recording intervals... More about our weather records

Advertising

Euskirchen weather history for previous 24 hours

 ConditionsComfort  
Time TempWeatherWind HumidityBarometerVisibility
6:20 AM
Mon, Aug 31
66 °FFog.1 mph94%29.92 "HgN/A
5:20 AM68 °FPassing clouds.2 mph100%29.92 "HgN/A
4:20 AM68 °FFog.2 mph100%29.95 "HgN/A
3:20 AM72 °FPassing clouds.1 mph88%29.95 "HgN/A
2:20 AM70 °FPassing clouds.6 mph94%29.98 "HgN/A
1:20 AM70 °FPassing clouds.2 mph94%29.95 "HgN/A
12:20 AM72 °FPassing clouds.1 mph88%29.98 "HgN/A
11:20 PM
Sun, Aug 30
75 °FPassing clouds.2 mph78%29.95 "HgN/A
10:20 PM73 °FPassing clouds.3 mph83%29.98 "HgN/A
9:20 PM75 °FPartly sunny.No wind78%29.98 "HgN/A
8:20 PM79 °FPartly sunny.No wind74%29.98 "HgN/A
7:20 PM82 °FPartly sunny.3 mph62%29.98 "HgN/A
6:20 PM88 °FPartly sunny.3 mph55%29.98 "HgN/A
5:20 PM90 °FPartly sunny.5 mph49%29.98 "HgN/A
4:20 PM91 °FPartly sunny.7 mph46%29.98 "HgN/A
3:20 PM91 °FPartly sunny.5 mph44%29.98 "HgN/A
2:20 PM90 °FPartly sunny.7 mph43%29.98 "HgN/A
1:20 PM90 °FPassing clouds.3 mph46%30.01 "HgN/A
12:20 PM86 °FPassing clouds.3 mph59%30.01 "HgN/A
11:20 AM81 °FPassing clouds.3 mph70%30.01 "HgN/A
10:20 AM77 °FPassing clouds.2 mph74%30.04 "HgN/A
9:20 AM73 °FPassing clouds.2 mph83%30.04 "HgN/A
8:20 AM70 °FScattered clouds.3 mph88%30.04 "HgN/A
7:20 AM64 °FPassing clouds.1 mph94%30.04 "HgN/A
Weather by CustomWeather, © 2015

See weather overviewHow to use our weather pages